• In Kazakhstan
  • List of Countries
  • For 7 days
  • Water Temperature
  • Satellite Maps
  • Weather Map
  • News
  • Weather Widgets
  • user-avatar
    Login

    Hourly Weather Gaje

    Today, 23 February, Saturday

    Time Temperature Precipitation Wind Pressure Humidity
    00:00 -7°C° 0 mm 5 mps 760 mmHg 53%
    01:00 -7°C° 0 mm 5 mps 761 mmHg 54%
    02:00 -7°C° 0 mm 5 mps 762 mmHg 52%
    03:00 -7°C° 0 mm 5 mps 762 mmHg 54%
    04:00 -8°C° 0 mm 5 mps 762 mmHg 56%
    05:00 -8°C° 0 mm 5 mps 762 mmHg 58%
    06:00 -8°C° 0 mm 4 mps 762 mmHg 59%
    07:00 -8°C° 0 mm 4 mps 763 mmHg 61%
    08:00 -8°C° 0 mm 4 mps 763 mmHg 62%
    09:00 -8°C° 0 mm 4 mps 764 mmHg 60%
    10:00 -7°C° 0 mm 4 mps 764 mmHg 58%
    11:00 -5°C° 0 mm 4 mps 764 mmHg 55%
    12:00 -5°C° 0 mm 4 mps 764 mmHg 53%
    13:00 -4°C° 0 mm 4 mps 764 mmHg 50%
    14:00 -2°C° 0 mm 3 mps 764 mmHg 48%
    15:00 -2°C° 0 mm 3 mps 764 mmHg 48%
    16:00 -2°C° 0 mm 3 mps 764 mmHg 49%
    17:00 -4°C° 0 mm 3 mps 764 mmHg 50%
    18:00 -3°C° 0 mm 2 mps 764 mmHg 53%
    19:00 -2°C° 0 mm 1 mps 764 mmHg 57%
    20:00 -2°C° 0 mm 1 mps 764 mmHg 60%
    21:00 -2°C° 0 mm 1 mps 764 mmHg 60%
    22:00 -3°C° 0 mm 0 mps 764 mmHg 61%
    23:00 -3°C° 0 mm 0 mps 764 mmHg 61%

    Tomorrow, 24 February, Sunday

    Time Temperature Precipitation Wind Pressure Humidity
    00:00 -2°C° 0 mm 1 mps 764 mmHg 61%
    01:00 -2°C° 0 mm 1 mps 763 mmHg 62%
    02:00 -2°C° 0 mm 1 mps 763 mmHg 62%
    03:00 -2°C° 0 mm 1 mps 763 mmHg 62%
    04:00 -5°C° 0 mm 2 mps 762 mmHg 62%
    05:00 -5°C° 0 mm 2 mps 762 mmHg 63%
    06:00 -4°C° 0 mm 2 mps 762 mmHg 60%
    07:00 -4°C° 0 mm 2 mps 762 mmHg 57%
    08:00 -4°C° 0 mm 2 mps 761 mmHg 54%
    09:00 -4°C° 0 mm 3 mps 761 mmHg 51%
    10:00 -4°C° 0 mm 3 mps 761 mmHg 47%
    11:00 -2°C° 0 mm 3 mps 761 mmHg 44%
    12:00 -1°C° 0 mm 3 mps 760 mmHg 41%
    13:00 0°C° 0 mm 3 mps 760 mmHg 38%
    14:00 -1°C° 0 mm 4 mps 760 mmHg 35%
    15:00 0°C° 0 mm 3 mps 759 mmHg 36%
    16:00 0°C° 0 mm 3 mps 759 mmHg 37%
    17:00 0°C° 0 mm 3 mps 759 mmHg 38%
    18:00 0°C° 0 mm 3 mps 759 mmHg 41%
    19:00 0°C° 0 mm 3 mps 759 mmHg 43%
    20:00 -1°C° 0 mm 2 mps 759 mmHg 45%
    21:00 -1°C° 0 mm 2 mps 759 mmHg 47%
    22:00 -1°C° 0 mm 2 mps 759 mmHg 50%
    23:00 -1°C° 0 mm 3 mps 759 mmHg 53%

    Day after tomorrow, 25 February, Monday

    Time Temperature Precipitation Wind Pressure Humidity
    00:00 -1°C° 0 mm 3 mps 758 mmHg 54%
    01:00 -1°C° 0 mm 3 mps 758 mmHg 55%
    02:00 -2°C° 0 mm 3 mps 758 mmHg 56%
    03:00 -2°C° 0 mm 3 mps 758 mmHg 58%
    04:00 -2°C° 0 mm 3 mps 757 mmHg 59%
    05:00 -2°C° 0 mm 3 mps 757 mmHg 60%
    06:00 -2°C° 0 mm 3 mps 757 mmHg 63%
    07:00 -2°C° 0 mm 3 mps 757 mmHg 65%
    08:00 -2°C° 0 mm 3 mps 757 mmHg 68%
    09:00 -2°C° 0 mm 4 mps 757 mmHg 69%
    10:00 -1°C° 0 mm 4 mps 757 mmHg 71%
    11:00 0°C° 0 mm 4 mps 758 mmHg 72%
    12:00 0°C° 0 mm 4 mps 757 mmHg 75%
    13:00 +1°C° 0 mm 4 mps 757 mmHg 77%
    14:00 +1°C° 0 mm 4 mps 757 mmHg 79%
    15:00 +1°C° 0 mm 4 mps 757 mmHg 81%
    16:00 +1°C° 0 mm 4 mps 757 mmHg 83%
    17:00 +1°C° 0 mm 4 mps 756 mmHg 85%
    18:00 0°C° 0 mm 4 mps 756 mmHg 87%
    19:00 0°C° 0 mm 4 mps 756 mmHg 90%
    20:00 -1°C° 0 mm 4 mps 756 mmHg 93%
    21:00 -1°C° 0 mm 4 mps 756 mmHg 92%
    22:00 -1°C° 0 mm 5 mps 756 mmHg 91%
    23:00 -1°C° 0 mm 5 mps 756 mmHg 89%

    26 February, Tuesday

    Time Temperature Precipitation Wind Pressure Humidity
    00:00 -1°C° 0 mm 5 mps 755 mmHg 89%
    01:00 -1°C° 0 mm 5 mps 755 mmHg 89%
    02:00 -2°C° 0 mm 5 mps 755 mmHg 88%
    03:00 -1°C° 0 mm 4 mps 755 mmHg 90%
    04:00 -1°C° 0 mm 4 mps 754 mmHg 92%
    05:00 0°C° 0 mm 3 mps 754 mmHg 93%
    06:00 -1°C° 0 mm 4 mps 753 mmHg 94%
    07:00 -1°C° 0 mm 4 mps 753 mmHg 95%
    08:00 0°C° 0 mm 4 mps 753 mmHg 95%
    09:00 0°C° 0 mm 5 mps 752 mmHg 92%
    10:00 +1°C° 0 mm 5 mps 752 mmHg 89%
    11:00 +2°C° 0 mm 6 mps 752 mmHg 86%
    12:00 +2°C° 0 mm 6 mps 751 mmHg 86%
    13:00 +2°C° 0 mm 6 mps 751 mmHg 86%
    14:00 +2°C° 0 mm 6 mps 750 mmHg 85%
    15:00 +3°C° 0 mm 6 mps 750 mmHg 83%
    16:00 +3°C° 0 mm 6 mps 750 mmHg 82%
    17:00 +5°C° 0 mm 5 mps 749 mmHg 80%
    18:00 +3°C° 0 mm 5 mps 749 mmHg 82%
    19:00 +2°C° 0 mm 6 mps 750 mmHg 85%
    20:00 +2°C° 0 mm 6 mps 750 mmHg 88%
    21:00 +1°C° 0 mm 5 mps 750 mmHg 88%
    22:00 +1°C° 0 mm 5 mps 750 mmHg 89%
    23:00 0°C° 0 mm 4 mps 750 mmHg 90%

    27 February, Wednesday

    Time Temperature Precipitation Wind Pressure Humidity
    00:00 0°C° 0 mm 4 mps 751 mmHg 91%
    01:00 -1°C° 0 mm 4 mps 751 mmHg 92%
    02:00 0°C° 0 mm 3 mps 751 mmHg 93%
    03:00 -1°C° 0 mm 3 mps 751 mmHg 93%
    04:00 -1°C° 0 mm 3 mps 751 mmHg 94%
    05:00 -2°C° 0 mm 3 mps 751 mmHg 95%
    06:00 -1°C° 0 mm 3 mps 751 mmHg 95%
    07:00 -1°C° 0 mm 3 mps 751 mmHg 94%
    08:00 -1°C° 0 mm 3 mps 751 mmHg 94%
    09:00 -1°C° 0 mm 4 mps 751 mmHg 88%
    10:00 +1°C° 0 mm 4 mps 751 mmHg 81%
    11:00 +3°C° 0 mm 4 mps 751 mmHg 75%
    12:00 +3°C° 0 mm 5 mps 750 mmHg 70%
    13:00 +6°C° 0 mm 5 mps 749 mmHg 66%
    14:00 +7°C° 0 mm 5 mps 748 mmHg 62%
    15:00 +7°C° 0 mm 5 mps 748 mmHg 66%
    16:00 +7°C° 0 mm 5 mps 747 mmHg 70%
    17:00 +7°C° 0 mm 5 mps 746 mmHg 74%
    18:00 +6°C° 0 mm 5 mps 746 mmHg 76%
    19:00 +6°C° 0 mm 5 mps 746 mmHg 77%
    20:00 +5°C° 0 mm 5 mps 746 mmHg 79%
    21:00 +5°C° 0 mm 5 mps 746 mmHg 80%
    22:00 +3°C° 0 mm 5 mps 745 mmHg 81%
    23:00 +3°C° 0 mm 5 mps 745 mmHg 83%

    28 February, Thursday

    Time Temperature Precipitation Wind Pressure Humidity
    00:00 +3°C° 0 mm 5 mps 745 mmHg 84%
    01:00 +3°C° 0 mm 5 mps 744 mmHg 86%
    02:00 +2°C° 0 mm 5 mps 744 mmHg 88%
    03:00 +2°C° 0 mm 6 mps 743 mmHg 88%
    04:00 +2°C° 0 mm 6 mps 743 mmHg 88%
    05:00 +2°C° 0 mm 6 mps 742 mmHg 89%
    06:00 +2°C° 0 mm 6 mps 742 mmHg 88%
    07:00 +2°C° 0 mm 6 mps 742 mmHg 88%
    08:00 +2°C° 0 mm 7 mps 742 mmHg 87%
    09:00 +3°C° 0 mm 7 mps 742 mmHg 81%
    10:00 +4°C° 0 mm 7 mps 742 mmHg 75%
    11:00 +5°C° 0 mm 7 mps 741 mmHg 68%
    12:00 +6°C° 0 mm 7 mps 741 mmHg 63%
    13:00 +6°C° 0 mm 7 mps 741 mmHg 57%
    14:00 +8°C° 0 mm 7 mps 740 mmHg 52%
    15:00 +8°C° 0 mm 7 mps 740 mmHg 53%
    16:00 +8°C° 0 mm 6 mps 740 mmHg 54%
    17:00 +8°C° 0 mm 6 mps 740 mmHg 54%
    18:00 +7°C° 0 mm 5 mps 740 mmHg 58%
    19:00 +6°C° 0 mm 5 mps 740 mmHg 63%
    20:00 +5°C° 0 mm 5 mps 741 mmHg 67%
    21:00 +3°C° 0 mm 5 mps 741 mmHg 69%
    22:00 +3°C° 0 mm 4 mps 741 mmHg 72%
    23:00 +3°C° 0 mm 4 mps 741 mmHg 74%
    Show more